Location: High Cliff State Park
(44.1557°N, 88.2948°W)
Time: 05:25:14
(UTC-06:00)

Amateur Radio Satellites - All Passes

Search period start: 22 December 2014 04:55
Search period end: 23 December 2014 04:55
Location: High Cliff State Park, 44.1557°N, 88.2948°W

Satellite Date Start Highest point End Downlink Frequencies (MHz)
Time Altitude Azimuth
PHONESAT 2.4 22 Dec 05:06:05 05:09:35 47° 181° (S) 05:13:05 2401.200-2431.200
Cubesat XI-IV 22 Dec 05:16:18 05:20:21 22° 92° (E) 05:24:21 437.490
AO-7 22 Dec 05:36:11 05:43:57 45° 300° (WNW) 05:51:41 29.400- 29.500
CUBESAT XI-V 22 Dec 05:41:41 05:46:21 78° 75° (ENE) 05:51:01 437.345
CUTE-I 22 Dec 05:48:26 05:53:26 41° 98° (E) 05:58:25 437.470
GONETS M04 22 Dec 05:56:40 06:05:27 67° 282° (WNW) 06:14:16
PRISM 22 Dec 05:59:57 06:03:39 29° 263° (W) 06:07:22 437.425
JAS-2 22 Dec 06:06:28 06:11:33 35° 295° (WNW) 06:16:15 435.910
VERMONT LUNAR 22 Dec 06:22:52 06:25:54 27° 199° (SSW) 06:28:56 437.305
SO-50 22 Dec 06:31:09 06:34:28 18° 250° (WSW) 06:37:47 436.795
STRAND 1 22 Dec 06:31:49 06:36:38 41° 262° (W) 06:41:28 437.568
PHONESAT 2.4 22 Dec 06:44:44 06:47:55 29° 198° (SSW) 06:51:05 2401.200-2431.200
Cubesat XI-IV 22 Dec 06:55:34 07:00:44 53° 290° (WNW) 07:05:53 437.490
HO-68 22 Dec 07:20:33 07:24:28 15° 88° (E) 07:28:22 435.675
CUBESAT XI-V 22 Dec 07:22:47 07:24:20 11° 272° (W) 07:25:53 437.345
CUTE-I 22 Dec 07:28:50 07:33:20 29° 296° (WNW) 07:37:50 437.470
AO-7 22 Dec 07:32:03 07:34:34 12° 323° (NW) 07:37:06 29.400- 29.500
CUTE 1.7 + AOD 2 22 Dec 07:35:12 07:36:04 11° 88° (E) 07:36:55 437.475
GONETS M04 22 Dec 07:59:37 08:04:15 15° 306° (NW) 08:08:55
MaSat-1 22 Dec 08:11:43 08:13:58 66° 115° (ESE) 08:16:09 437.345
YUBILEINY 22 Dec 08:15:58 08:19:17 12° 52° (NE) 08:22:36 435.215
AAUSAT CUBESAT 2 22 Dec 08:18:23 08:21:34 20° 93° (E) 08:24:43 437.432
CUSAT 1 22 Dec 08:23:31 08:26:41 23° 84° (E) 08:30:38 437.405
BRITE-PL 22 Dec 08:28:37 08:33:13 49° 99° (E) 08:38:11 437.365/2234.400
QB50P2 22 Dec 08:29:58 08:30:46 11° 59° (ENE) 08:31:35 145.880/145.840
UNISAT 6 22 Dec 08:34:35 08:37:41 19° 63° (ENE) 08:40:50 437.425
CANX-2 22 Dec 08:37:37 08:41:54 55° 100° (E) 08:46:07 2200.000
POLYITAN 1 22 Dec 08:38:13 08:40:09 13° 61° (ENE) 08:42:06 437.675
NANOSAT C BR1 22 Dec 08:38:50 08:40:45 13° 61° (ENE) 08:42:40 145.865
GOMX 1 22 Dec 08:46:11 08:50:53 53° 100° (E) 08:55:54 467.674
CUBEBUG 2 22 Dec 08:48:05 08:50:57 16° 91° (E) 08:53:51 437.445
ZACube-1 22 Dec 08:51:48 08:53:34 12° 89° (E) 08:55:21 437.345
QB50P1 22 Dec 08:52:30 08:55:21 18° 64° (ENE) 08:58:11 145.935-145.965
COMPASS 1 22 Dec 08:54:19 08:58:31 56° 100° (E) 09:02:41 437.405
DELFI C3 22 Dec 09:00:25 09:03:46 24° 94° (E) 09:07:05 145.870
SEEDS 22 Dec 09:02:18 09:06:38 82° 103° (ESE) 09:10:54 437.485
DOVE 4 22 Dec 09:03:16 09:08:01 59° 100° (E) 09:13:02 437.250
ANTELSAT 22 Dec 09:05:31 09:09:34 37° 69° (ENE) 09:13:43 437.575/2403.000
HO-68 22 Dec 09:06:00 09:13:12 84° 106° (ESE) 09:20:21 435.675
CUTE 1.7 + AOD 2 22 Dec 09:08:11 09:12:31 75° 285° (WNW) 09:16:48 437.475
CINEMA 3 22 Dec 09:15:28 09:20:05 47° 99° (E) 09:24:50 145.822/145.860
FUNcube-1 22 Dec 09:16:32 09:20:03 22° 93° (E) 09:23:35 145.935
O/OREOS (USA 219) 22 Dec 09:17:50 09:22:07 41° 61° (ENE) 09:26:25 437.305
POPSAT HIP 1 22 Dec 09:20:19 09:24:06 33° 69° (ENE) 09:27:54 437.405
UWE-3 22 Dec 09:21:34 09:25:36 29° 95° (E) 09:29:40 435.000/436.395/437.385
DANDE 22 Dec 09:23:10 09:26:50 80° 98° (E) 09:31:53 436.750
DX 1 22 Dec 09:31:33 09:35:44 45° 99° (E) 09:39:54 434.975-435.025
HUMSAT D 22 Dec 09:37:18 09:40:34 20° 93° (E) 09:43:49 437.325/437.525
BUGSAT 1 22 Dec 09:37:23 09:41:12 40° 71° (ENE) 09:45:00 437.445
TIGRISAT 22 Dec 09:39:28 09:43:50 82° 75° (ENE) 09:48:21 435.000
AISAT 22 Dec 09:42:44 09:46:09 21° 94° (E) 09:49:34 437.250
DUCHIFAT 1 22 Dec 09:46:55 09:51:04 64° 74° (ENE) 09:55:15 145.980
Oscar 11 22 Dec 09:50:46 09:55:10 81° 284° (WNW) 09:59:31 145.826/435.025
AAUSAT CUBESAT 2 22 Dec 09:53:26 09:57:22 37° 290° (WNW) 10:01:15 437.432
UKube-1 22 Dec 10:00:31 10:04:52 89° 104° (ESE) 10:09:12 .
QB50P2 22 Dec 10:01:48 10:06:01 85° 256° (WSW) 10:10:16 145.880/145.840
CUSAT 1 22 Dec 10:05:51 10:09:28 31° 293° (WNW) 10:14:11 437.405
BRITE-PL 22 Dec 10:07:57 10:11:29 21° 294° (WNW) 10:15:12 437.365/2234.400
YUBILEINY 22 Dec 10:09:47 10:18:22 58° 76° (ENE) 10:26:53 435.215
UNISAT 6 22 Dec 10:09:52 10:14:06 47° 261° (W) 10:18:28 437.425
POLYITAN 1 22 Dec 10:11:22 10:15:33 67° 258° (WSW) 10:19:47 437.675
NANOSAT C BR1 22 Dec 10:11:55 10:16:05 67° 258° (WSW) 10:20:18 145.865
CANX-2 22 Dec 10:14:47 10:17:23 16° 297° (WNW) 10:19:58 2200.000
CUBEBUG 2 22 Dec 10:23:24 10:27:59 59° 287° (WNW) 10:32:38 437.445
GOMX 1 22 Dec 10:25:14 10:28:42 20° 295° (WNW) 10:32:19 467.674
ZACube-1 22 Dec 10:25:53 10:30:25 74° 285° (WNW) 10:35:00 437.345
QB50P1 22 Dec 10:26:52 10:30:54 45° 261° (W) 10:34:58 145.935-145.965
COMPASS 1 22 Dec 10:31:19 10:33:47 15° 297° (WNW) 10:36:15 437.405
VELOX 1 22 Dec 10:34:13 10:38:39 72° 103° (ESE) 10:43:03 145.980
50 SAT 22 Dec 10:35:18 10:39:27 68° 102° (ESE) 10:43:35 437.505
DELFI C3 22 Dec 10:35:25 10:39:03 30° 291° (WNW) 10:42:39 145.870
RS-15 22 Dec 10:39:59 10:50:08 46° 111° (ESE) 11:00:16 29.354- 29.394
SEEDS 22 Dec 10:40:32 10:41:48 11° 300° (WNW) 10:43:03 437.485
DOVE 4 22 Dec 10:42:08 10:45:24 19° 296° (WNW) 10:48:48 437.250
ANTELSAT 22 Dec 10:43:01 10:46:29 23° 267° (W) 10:50:02 437.575/2403.000
ESTCUBE 1 22 Dec 10:43:42 10:47:54 37° 98° (E) 10:52:04 437.505/2401.250
FUNcube-1 22 Dec 10:52:17 10:56:32 41° 289° (WNW) 11:00:49 145.935
CINEMA 3 22 Dec 10:53:23 10:56:59 22° 295° (WNW) 11:00:41 145.822/145.860
HO-68 22 Dec 10:54:55 11:00:06 22° 306° (NW) 11:05:16 435.675
POPSAT HIP 1 22 Dec 10:56:44 11:00:04 22° 266° (W) 11:03:24 437.405
O/OREOS (USA 219) 22 Dec 10:57:50 11:01:15 21° 258° (WSW) 11:04:40 437.305
UWE-3 22 Dec 10:58:03 11:02:06 31° 292° (WNW) 11:06:12 435.000/436.395/437.385
DX 1 22 Dec 11:08:36 11:11:40 19° 297° (WNW) 11:14:45 434.975-435.025
DANDE 22 Dec 11:10:43 11:11:38 11° 307° (NW) 11:12:36 436.750
HUMSAT D 22 Dec 11:12:27 11:16:30 39° 289° (WNW) 11:20:33 437.325/437.525
BUGSAT 1 22 Dec 11:14:07 11:16:53 18° 267° (W) 11:19:38 437.445
CUBEBUG 1 22 Dec 11:17:30 11:21:52 82° 103° (ESE) 11:26:12 437.445
AISAT 22 Dec 11:18:47 11:22:55 39° 290° (WNW) 11:27:02 437.250
DUCHIFAT 1 22 Dec 11:25:50 11:27:22 12° 271° (W) 11:28:54 145.980
Oscar 19 22 Dec 11:29:31 11:33:41 26° 64° (ENE) 11:37:53 437.125/150
UKube-1 22 Dec 11:39:28 11:40:20 11° 302° (WNW) 11:41:12 .
ITAMSAT 1 22 Dec 11:50:52 11:53:59 16° 59° (ENE) 11:57:07 435.822/435.867
BEESAT 2 22 Dec 11:55:02 11:58:07 21° 112° (ESE) 12:01:14 435.950
Gurwin Techsat 1B 22 Dec 11:58:30 12:00:35 12° 56° (NE) 12:02:39 435.225
YUBILEINY 22 Dec 12:07:17 12:14:40 33° 277° (W) 12:22:03 435.215
TISAT 1 22 Dec 12:08:03 12:12:18 73° 102° (ESE) 12:16:31 437.305
50 SAT 22 Dec 12:12:20 12:14:07 13° 299° (WNW) 12:15:54 437.505
VELOX 1 22 Dec 12:12:34 12:14:39 13° 300° (WNW) 12:16:44 145.980
SWISSCUBE 22 Dec 12:12:36 12:15:07 14° 90° (E) 12:17:38 437.505
ITUPSAT 1 22 Dec 12:14:06 12:16:22 13° 89° (E) 12:18:38 437.325
SPROUT 22 Dec 12:17:44 12:22:04 87° 104° (ESE) 12:26:23 437.525
ESTCUBE 1 22 Dec 12:21:01 12:24:34 23° 295° (WNW) 12:28:07 437.505/2401.250
BEESAT 22 Dec 12:36:13 12:39:59 23° 94° (E) 12:43:43 436.000
ISS 22 Dec 12:47:09 12:50:19 45° 142° (SE) 12:53:30 145.825
BEESAT 3 22 Dec 12:50:06 12:54:12 84° 123° (ESE) 12:58:23 437.485
RS-15 22 Dec 12:51:31 13:02:13 58° 315° (NW) 13:13:06 29.354- 29.394
AO-7 22 Dec 12:55:08 13:00:24 19° 46° (NE) 13:05:41 29.400- 29.500
CUBEBUG 1 22 Dec 12:56:13 12:57:36 11° 301° (WNW) 12:58:59 437.445
Oscar 19 22 Dec 13:07:52 13:12:46 44° 261° (W) 13:17:44 437.125/150
AIST 2 22 Dec 13:08:24 13:12:32 55° 120° (ESE) 13:16:45 435.215
PCSat 22 Dec 13:12:02 13:17:24 70° 118° (ESE) 13:22:48 145.827
ITAMSAT 1 22 Dec 13:27:42 13:32:52 75° 257° (WSW) 13:38:04 435.822/435.867
BEESAT 2 22 Dec 13:32:07 13:36:05 43° 310° (NW) 13:40:06 435.950
Gurwin Techsat 1B 22 Dec 13:34:22 13:39:40 79° 74° (ENE) 13:45:00 435.225
HORYU 2 22 Dec 13:39:13 13:43:14 34° 68° (ENE) 13:47:17 437.375
TISAT 1 22 Dec 13:45:53 13:47:33 12° 300° (WNW) 13:49:12 437.305
SWISSCUBE 22 Dec 13:48:43 13:53:27 67° 287° (WNW) 13:58:09 437.505
ITUPSAT 1 22 Dec 13:50:01 13:54:47 71° 286° (WNW) 13:59:30 437.325
SPROUT 22 Dec 13:56:38 13:57:29 11° 301° (WNW) 13:58:19 437.525
AUBIESAT-1 22 Dec 13:58:54 14:03:00 43° 103° (ESE) 14:06:45 437.475
GONETS M04 22 Dec 14:10:20 14:15:05 15° 55° (NE) 14:19:47
BEESAT 22 Dec 14:13:30 14:17:59 42° 291° (WNW) 14:22:26 436.000
ISS 22 Dec 14:23:54 14:26:59 35° 340° (NNW) 14:30:03 145.825
M-CUBED/EXP-1 PRIME 22 Dec 14:25:57 14:30:20 85° 290° (WNW) 14:34:18 437.505
BEESAT 3 22 Dec 14:30:24 14:32:57 16° 323° (NW) 14:35:32 437.485
JAS-2 22 Dec 14:34:43 14:40:16 24° 60° (ENE) 14:45:26 435.910
STARS 22 Dec 14:35:36 14:39:58 52° 100° (E) 14:44:18 437.465
AO-7 22 Dec 14:43:31 14:51:46 71° 67° (ENE) 15:00:05 29.400- 29.500
KKS-1 22 Dec 14:43:43 14:48:13 87° 284° (WNW) 14:52:42 437.445
AIST 2 22 Dec 14:48:09 14:51:29 22° 319° (NW) 14:54:50 435.215
PCSat 22 Dec 14:57:03 15:01:20 23° 318° (NW) 15:05:38 145.827
RS-15 22 Dec 15:08:40 15:17:36 27° 346° (NNW) 15:26:45 29.354- 29.394
HORYU 2 22 Dec 15:16:14 15:19:56 25° 265° (W) 15:23:41 437.375
Gurwin Techsat 1B 22 Dec 15:17:33 15:20:15 14° 271° (W) 15:22:58 435.225
AUBIESAT-1 22 Dec 15:34:29 15:37:37 20° 303° (WNW) 15:40:34 437.475
CUTE-I 22 Dec 15:35:58 15:37:57 12° 55° (NE) 15:39:56 437.470
AIST 1 22 Dec 15:57:29 16:01:50 70° 96° (E) 16:06:10
ISS 22 Dec 16:01:34 16:04:12 21° 0° (N) 16:06:49 145.825
M-CUBED/EXP-1 PRIME 22 Dec 16:03:27 16:04:30 11° 309° (NW) 16:05:32 437.505
GONETS M04 22 Dec 16:05:05 16:13:51 69° 79° (ENE) 16:22:29
MOZHAYETS 4 22 Dec 16:08:23 16:12:18 27° 94° (E) 16:16:10
STARS 22 Dec 16:13:08 16:16:03 18° 297° (WNW) 16:18:58 437.465
JAS-2 22 Dec 16:17:09 16:24:45 77° 257° (WSW) 16:31:38 435.910
KKS-1 22 Dec 16:23:15 16:24:08 11° 302° (WNW) 16:25:01 437.445
AO-7 22 Dec 16:38:25 16:45:12 27° 266° (W) 16:52:03 29.400- 29.500
Cubesat XI-IV 22 Dec 16:39:36 16:44:34 41° 68° (ENE) 16:49:33 437.490
CUTE-I 22 Dec 17:11:49 17:17:08 77° 74° (ENE) 17:22:27 437.470
RS-15 22 Dec 17:25:10 17:34:38 31° 21° (NNE) 17:44:22 29.354- 29.394
CUBESAT XI-V 22 Dec 17:38:10 17:41:14 17° 91° (E) 17:44:17 437.345
ISS 22 Dec 17:38:20 17:41:25 36° 20° (NNE) 17:44:29 145.825
AIST 1 22 Dec 17:38:20 17:40:00 12° 294° (WNW) 17:41:41
MaSat-1 22 Dec 17:39:48 17:42:05 41° 246° (WSW) 17:44:29 437.345
PRISM 22 Dec 17:41:14 17:45:01 33° 97° (E) 17:48:45 437.425
MOZHAYETS 4 22 Dec 17:45:24 17:49:33 34° 292° (WNW) 17:53:40
HO-68 22 Dec 17:52:03 17:56:11 17° 50° (NE) 18:00:19 435.675
GONETS M04 22 Dec 18:02:58 18:09:53 27° 279° (W) 18:16:46
JAS-2 22 Dec 18:06:47 18:10:35 15° 273° (W) 18:14:14 435.910
DANDE 22 Dec 18:18:41 18:24:11 20° 62° (ENE) 18:30:08 436.750
Cubesat XI-IV 22 Dec 18:20:17 18:24:47 28° 265° (W) 18:29:18 437.490
CUTE 1.7 + AOD 2 22 Dec 18:30:38 18:31:31 11° 59° (ENE) 18:32:25 437.475
STRAND 1 22 Dec 18:40:26 18:45:28 58° 101° (E) 18:50:29 437.568
CUTE-I 22 Dec 18:54:58 18:57:47 14° 271° (W) 19:00:37 437.470
CUSAT 1 22 Dec 18:58:10 19:05:23 40° 70° (ENE) 19:13:13 437.405
SO-50 22 Dec 19:08:13 19:10:26 14° 108° (ESE) 19:12:41 436.795
AAUSAT CUBESAT 2 22 Dec 19:11:44 19:14:38 18° 64° (ENE) 19:17:32 437.432
CUBESAT XI-V 22 Dec 19:14:31 19:18:58 51° 288° (WNW) 19:23:24 437.345
Oscar 11 22 Dec 19:14:41 19:15:44 11° 59° (ENE) 19:16:47 145.826/435.025
ISS 22 Dec 19:14:55 19:18:02 41° 219° (SW) 19:21:07 145.825
PRISM 22 Dec 19:17:07 19:20:22 23° 295° (WNW) 19:23:36 437.425
UKube-1 22 Dec 19:24:46 19:25:49 11° 58° (ENE) 19:26:52 .
BEESAT 3 22 Dec 19:31:36 19:33:53 14° 35° (NE) 19:36:09 437.485
CANX-2 22 Dec 19:32:10 19:36:17 48° 72° (ENE) 19:40:26 2200.000
HO-68 22 Dec 19:35:34 19:42:43 73° 70° (ENE) 19:49:52 435.675
RS-15 22 Dec 19:38:12 19:49:26 70° 51° (NE) 20:01:09 29.354- 29.394
BRITE-PL 22 Dec 19:41:55 19:46:00 61° 74° (ENE) 19:50:08 437.365/2234.400
COMPASS 1 22 Dec 19:47:23 19:51:26 47° 72° (ENE) 19:55:32 437.405
CUBEBUG 2 22 Dec 19:49:00 19:51:29 15° 62° (ENE) 19:53:59 437.445
ZACube-1 22 Dec 19:50:36 19:52:06 12° 60° (ENE) 19:53:35 437.345
DELFI C3 22 Dec 19:50:58 19:53:58 20° 65° (ENE) 19:56:59 145.870
AIST 2 22 Dec 19:52:08 19:53:45 12° 32° (NNE) 19:55:20 435.215
SEEDS 22 Dec 19:55:57 20:00:11 70° 75° (ENE) 20:04:27 437.485
GOMX 1 22 Dec 19:56:43 20:00:48 62° 74° (ENE) 20:04:58 467.674
DANDE 22 Dec 20:00:46 20:08:36 81° 79° (E) 20:17:20 436.750
CUTE 1.7 + AOD 2 22 Dec 20:02:29 20:06:45 87° 256° (WSW) 20:11:05 437.475
DOVE 4 22 Dec 20:11:14 20:15:20 66° 74° (ENE) 20:19:34 437.250
BEESAT 2 22 Dec 20:12:54 20:16:25 25° 43° (NE) 20:19:54 435.950
FUNcube-1 22 Dec 20:14:45 20:17:50 20° 65° (ENE) 20:20:59 145.935
PCSat 22 Dec 20:16:08 20:19:35 17° 37° (NE) 20:23:01 145.827
CINEMA 3 22 Dec 20:19:23 20:23:24 47° 72° (ENE) 20:27:33 145.822/145.860
STRAND 1 22 Dec 20:20:37 20:24:13 20° 299° (WNW) 20:27:49 437.568
UWE-3 22 Dec 20:20:57 20:24:30 27° 67° (ENE) 20:28:09 435.000/436.395/437.385
DX 1 22 Dec 20:28:41 20:32:51 48° 71° (ENE) 20:37:02 434.975-435.025
HUMSAT D 22 Dec 20:31:46 20:34:37 18° 64° (ENE) 20:37:30 437.325/437.525
CUSAT 1 22 Dec 20:41:04 20:48:40 54° 267° (W) 20:56:51 437.405
AISAT 22 Dec 20:42:39 20:46:12 24° 66° (ENE) 20:49:46 437.250
SO-50 22 Dec 20:45:45 20:50:18 76° 306° (NW) 20:55:02 436.795
AAUSAT CUBESAT 2 22 Dec 20:45:56 20:49:58 44° 261° (W) 20:54:03 437.432
Oscar 11 22 Dec 20:46:52 20:51:12 87° 257° (WSW) 20:55:36 145.826/435.025
UKube-1 22 Dec 20:56:57 21:01:18 87° 256° (WSW) 21:05:39 .
BEESAT 3 22 Dec 21:08:32 21:12:44 83° 56° (NE) 21:16:52 437.485
CANX-2 22 Dec 21:09:48 21:12:29 16° 269° (W) 21:15:13 2200.000
YUBILEINY 22 Dec 21:23:16 21:25:51 12° 71° (ENE) 21:28:25 435.215
CUBEBUG 2 22 Dec 21:23:36 21:27:43 55° 260° (W) 21:31:58 437.445
ZACube-1 22 Dec 21:23:37 21:27:49 77° 258° (WSW) 21:32:08 437.345
BRITE-PL 22 Dec 21:23:41 21:25:01 11° 271° (W) 21:26:21 437.365/2234.400
COMPASS 1 22 Dec 21:24:44 21:27:25 16° 269° (W) 21:30:07 437.405
50 SAT 22 Dec 21:25:00 21:28:53 51° 73° (ENE) 21:32:51 437.505
DELFI C3 22 Dec 21:25:08 21:28:59 38° 262° (W) 21:32:52 145.870
HO-68 22 Dec 21:25:38 21:31:03 23° 268° (W) 21:36:29 435.675
AIST 2 22 Dec 21:29:01 21:33:17 58° 52° (NE) 21:37:29 435.215
TIGRISAT 22 Dec 21:30:56 21:33:56 17° 91° (E) 21:36:56 435.000
VELOX 1 22 Dec 21:33:29 21:37:54 78° 75° (ENE) 21:42:20 145.980
SEEDS 22 Dec 21:35:11 21:36:29 11° 272° (W) 21:37:47 437.485
GOMX 1 22 Dec 21:38:09 21:39:26 11° 272° (W) 21:40:44 467.674
ESTCUBE 1 22 Dec 21:44:55 21:49:12 42° 70° (ENE) 21:53:29 437.505/2401.250
DANDE 22 Dec 21:45:24 21:51:28 25° 275° (W) 21:58:00 436.750
QB50P2 22 Dec 21:47:25 21:49:47 14° 91° (E) 21:52:08 145.880/145.840
FUNcube-1 22 Dec 21:49:59 21:53:55 39° 262° (W) 21:57:58 145.935
BEESAT 2 22 Dec 21:50:51 21:54:49 41° 242° (WSW) 21:58:43 435.950
RS-15 22 Dec 21:51:13 22:01:07 37° 253° (WSW) 22:11:26 29.354- 29.394
DOVE 4 22 Dec 21:52:36 21:53:39 11° 272° (W) 21:54:43 437.250
POLYITAN 1 22 Dec 21:56:37 21:59:37 18° 92° (E) 22:02:36 437.675
NANOSAT C BR1 22 Dec 21:56:42 21:59:38 18° 92° (E) 22:02:33 145.865
UWE-3 22 Dec 21:57:21 22:00:59 28° 265° (W) 22:04:44 435.000/436.395/437.385
CINEMA 3 22 Dec 21:58:25 22:00:57 16° 270° (W) 22:03:32 145.822/145.860
PCSat 22 Dec 21:58:29 22:03:56 76° 58° (ENE) 22:09:21 145.827
UNISAT 6 22 Dec 22:00:28 22:04:44 33° 96° (E) 22:08:58 437.425
HUMSAT D 22 Dec 22:06:09 22:10:06 43° 262° (W) 22:14:07 437.325/437.525
DX 1 22 Dec 22:06:33 22:09:22 17° 268° (W) 22:12:11 434.975-435.025
QB50P1 22 Dec 22:11:04 22:14:38 25° 95° (E) 22:18:11 145.935-145.965
CUBEBUG 1 22 Dec 22:15:11 22:19:33 82° 75° (ENE) 22:23:55 437.445
AISAT 22 Dec 22:18:38 22:22:40 34° 263° (W) 22:26:43 437.250
SO-50 22 Dec 22:28:51 22:31:41 16° 327° (NNW) 22:34:34 436.795
CUSAT 1 22 Dec 22:28:51 22:30:18 11° 284° (WNW) 22:31:46 437.405
ANTELSAT 22 Dec 22:32:21 22:37:05 69° 102° (ESE) 22:41:47 437.575/2403.000
POPSAT HIP 1 22 Dec 22:39:40 22:43:50 51° 100° (E) 22:48:00 437.405
BEESAT 3 22 Dec 22:49:36 22:50:14 10° 253° (WSW) 22:50:51 437.485
BUGSAT 1 22 Dec 22:53:31 22:57:32 57° 101° (E) 23:01:33 437.445
TISAT 1 22 Dec 23:02:03 23:06:13 67° 74° (ENE) 23:10:24 437.305
50 SAT 22 Dec 23:02:23 23:04:26 14° 270° (W) 23:06:30 437.505
DUCHIFAT 1 22 Dec 23:06:20 23:10:37 82° 284° (WNW) 23:14:53 145.980
TIGRISAT 22 Dec 23:06:24 23:11:01 57° 287° (WNW) 23:15:38 435.000
AIST 2 22 Dec 23:08:49 23:11:27 16° 250° (WSW) 23:14:03 435.215
YUBILEINY 22 Dec 23:12:11 23:20:45 64° 92° (E) 23:29:18 435.215
SPROUT 22 Dec 23:13:23 23:17:39 81° 76° (ENE) 23:21:57 437.525
VELOX 1 22 Dec 23:14:14 23:15:02 10° 272° (W) 23:15:50 145.980
AUBIESAT-1 22 Dec 23:16:54 23:18:55 13° 53° (NE) 23:20:56 437.475
SWISSCUBE 22 Dec 23:20:34 23:24:07 21° 63° (ENE) 23:27:40 437.505
QB50P2 22 Dec 23:21:51 23:26:02 54° 287° (WNW) 23:30:12 145.880/145.840
ITUPSAT 1 22 Dec 23:22:12 23:25:39 20° 63° (ENE) 23:29:07 437.325
ESTCUBE 1 22 Dec 23:22:52 23:26:15 20° 267° (W) 23:29:38 437.505/2401.250
NANOSAT C BR1 22 Dec 23:31:40 23:35:43 43° 289° (WNW) 23:39:45 145.865
POLYITAN 1 22 Dec 23:31:41 23:35:45 43° 289° (WNW) 23:39:49 437.675
O/OREOS (USA 219) 22 Dec 23:31:49 23:35:50 35° 106° (ESE) 23:39:54 437.305
UNISAT 6 22 Dec 23:37:21 23:41:25 29° 293° (WNW) 23:45:28 437.425
M-CUBED/EXP-1 PRIME 22 Dec 23:42:21 23:46:05 22° 58° (ENE) 23:49:50 437.505
PCSat 22 Dec 23:43:26 23:46:41 16° 256° (WSW) 23:49:56 145.827
BEESAT 22 Dec 23:44:14 23:48:26 32° 67° (ENE) 23:52:40 436.000
QB50P1 22 Dec 23:46:46 23:50:31 31° 292° (WNW) 23:54:16 145.935-145.965
KKS-1 23 Dec 00:10:05 00:11:50 12° 59° (ENE) 00:13:35 437.445
ANTELSAT 23 Dec 00:10:34 00:13:19 16° 299° (WNW) 00:16:04 437.575/2403.000
POPSAT HIP 1 23 Dec 00:16:39 00:19:21 17° 297° (WNW) 00:22:03 437.405
BUGSAT 1 23 Dec 00:30:30 00:32:35 14° 298° (WNW) 00:34:40 437.445
TISAT 1 23 Dec 00:41:08 00:42:29 11° 271° (W) 00:43:51 437.305
AUBIESAT-1 23 Dec 00:48:13 00:53:04 78° 70° (ENE) 00:57:58 437.475
SWISSCUBE 23 Dec 00:57:00 01:01:38 49° 260° (W) 01:06:18 437.505
ITUPSAT 1 23 Dec 00:58:29 01:03:10 52° 260° (W) 01:07:52 437.325
YUBILEINY 23 Dec 01:10:40 01:18:09 31° 293° (WNW) 01:25:39 435.215
O/OREOS (USA 219) 23 Dec 01:11:33 01:15:18 26° 304° (NW) 01:19:04 437.305
M-CUBED/EXP-1 PRIME 23 Dec 01:15:56 01:20:42 54° 255° (WSW) 01:25:32 437.505
Oscar 19 23 Dec 01:17:34 01:22:43 58° 101° (E) 01:27:49 437.125/150
PHONESAT 2.4 23 Dec 01:18:35 01:18:59 10° 148° (SSE) 01:19:24 2401.200-2431.200
BEESAT 23 Dec 01:22:02 01:26:15 31° 264° (W) 01:30:29 436.000
STARS 23 Dec 01:34:14 01:38:31 56° 72° (ENE) 01:42:50 437.465
ITAMSAT 1 23 Dec 01:39:16 01:43:59 34° 97° (E) 01:48:39 435.822/435.867
KKS-1 23 Dec 01:43:25 01:47:50 80° 257° (WSW) 01:52:18 437.445
Gurwin Techsat 1B 23 Dec 01:49:32 01:54:03 28° 94° (E) 01:58:33 435.225
AIST 1 23 Dec 02:04:02 02:07:12 20° 71° (ENE) 02:10:22
AUBIESAT-1 23 Dec 02:26:02 02:28:29 14° 266° (W) 02:30:57 437.475
VERMONT LUNAR 23 Dec 02:27:13 02:30:20 30° 163° (SSE) 02:33:27 437.305
AO-7 23 Dec 02:44:47 02:50:34 20° 90° (E) 02:56:18 29.400- 29.500
PHONESAT 2.4 23 Dec 02:53:45 02:56:59 31° 163° (SSE) 03:00:13 2401.200-2431.200
Oscar 19 23 Dec 02:57:51 03:01:37 21° 299° (WNW) 03:05:22 437.125/150
HORYU 2 23 Dec 03:05:20 03:09:47 55° 101° (E) 03:14:12 437.375
MOZHAYETS 4 23 Dec 03:11:54 03:15:58 31° 68° (ENE) 03:20:02
STARS 23 Dec 03:12:54 03:15:21 15° 269° (W) 03:17:49 437.465
GONETS M04 23 Dec 03:16:28 03:20:54 15° 73° (ENE) 03:25:19
ITAMSAT 1 23 Dec 03:18:51 03:23:24 32° 294° (WNW) 03:27:57 435.822/435.867
Gurwin Techsat 1B 23 Dec 03:29:11 03:34:08 41° 292° (WNW) 03:39:03 435.225
SO-50 23 Dec 03:35:49 03:39:53 25° 41° (NE) 03:43:57 436.795
AIST 1 23 Dec 03:41:05 03:45:00 36° 269° (W) 03:48:54
VERMONT LUNAR 23 Dec 04:04:54 04:08:18 46° 180° (S) 04:11:42 437.305
STRAND 1 23 Dec 04:21:47 04:24:27 14° 58° (ENE) 04:27:07 437.568
PHONESAT 2.4 23 Dec 04:31:50 04:35:20 47° 180° (S) 04:38:50 2401.200-2431.200
PRISM 23 Dec 04:33:28 04:37:14 32° 68° (ENE) 04:40:59 437.425
AO-7 23 Dec 04:35:57 04:44:23 89° 289° (WNW) 04:52:45 29.400- 29.500
HORYU 2 23 Dec 04:43:05 04:46:02 17° 298° (WNW) 04:48:58 437.375
CUBESAT XI-V 23 Dec 04:43:15 04:46:46 22° 65° (ENE) 04:50:17 437.345
